Estación de Petorca
Ultimos registro cada 15 minutos 33
| N° | Estación | Fecha / Hora | Temperatura | Humedad | Lluvia | Velocidad | Dirección | Radiación | Presion |
| 33 | Petorca | 10-05-2026 08:00 | 3,9 | 71,5 | 0 | 0,5 | 22 | 13,1 | 981,7 |
| 32 | Petorca | 10-05-2026 07:45 | 3 | 75,8 | 0 | 0 | 25 | 9,4 | 981,8 |
| 31 | Petorca | 10-05-2026 07:30 | 3,3 | 73,6 | 0 | 0 | 22 | 4,4 | 981,7 |
| 30 | Petorca | 10-05-2026 07:15 | 3,4 | 72,8 | 0 | 0 | 13 | 0,6 | 981,5 |
| 29 | Petorca | 10-05-2026 07:00 | 4,3 | 68,7 | 0 | 0,5 | 13 | 0,6 | 981,5 |
| 28 | Petorca | 10-05-2026 06:45 | 4,1 | 70,2 | 0 | 0,5 | 22 | 0,6 | 981,6 |
| 27 | Petorca | 10-05-2026 06:30 | 4,1 | 72 | 0 | 0,5 | 39 | 0,6 | 981,5 |
| 26 | Petorca | 10-05-2026 06:15 | 3,5 | 77,6 | 0 | 0 | 39 | 0,6 | 981,4 |
| 25 | Petorca | 10-05-2026 06:00 | 3,6 | 76 | 0 | 0 | 14 | 0,6 | 981,4 |
| 24 | Petorca | 10-05-2026 05:45 | 4,1 | 74,7 | 0 | 0 | 24 | 0,6 | 981,4 |
| 23 | Petorca | 10-05-2026 05:30 | 3,9 | 75,8 | 0 | 0 | 7 | 0,6 | 981,4 |
| 22 | Petorca | 10-05-2026 05:15 | 4,1 | 76,4 | 0 | 0 | 22 | 0,6 | 981,5 |
| 21 | Petorca | 10-05-2026 05:00 | 3,9 | 78,5 | 0 | 0 | 18 | 0,6 | 981,5 |
| 20 | Petorca | 10-05-2026 04:45 | 4,5 | 75,6 | 0 | 0 | 18 | 0,6 | 981,5 |
| 19 | Petorca | 10-05-2026 04:30 | 3,9 | 77,9 | 0 | 0 | 29 | 0,6 | 981,5 |
| 18 | Petorca | 10-05-2026 04:15 | 4,1 | 81 | 0 | 0,5 | 35 | 0,6 | 981,7 |
| 17 | Petorca | 10-05-2026 04:00 | 3,7 | 82,2 | 0 | 0 | 17 | 0,6 | 981,6 |
| 16 | Petorca | 10-05-2026 03:45 | 4 | 82,4 | 0 | 0 | 14 | 0,6 | 981,9 |
| 15 | Petorca | 10-05-2026 03:30 | 4,6 | 77,9 | 0 | 0 | 10 | 0,6 | 981,7 |
| 14 | Petorca | 10-05-2026 03:15 | 5,4 | 78 | 0 | 0 | 20 | 0,6 | 981,7 |
| 13 | Petorca | 10-05-2026 03:00 | 5,3 | 79,8 | 0 | 0,5 | 39 | 0,6 | 981,9 |
| 12 | Petorca | 10-05-2026 02:45 | 4,9 | 81,1 | 0 | 0,5 | 20 | 0,6 | 982 |
| 11 | Petorca | 10-05-2026 02:30 | 4,9 | 85,1 | 0 | 0,5 | 10 | 0,6 | 982,2 |
| 10 | Petorca | 10-05-2026 02:15 | 4,7 | 83,3 | 0 | 0 | 24 | 0,6 | 982,4 |
| 9 | Petorca | 10-05-2026 02:00 | 5,9 | 81,7 | 0 | 0 | 32 | 0,6 | 982,5 |
| 8 | Petorca | 10-05-2026 01:45 | 6,1 | 80,7 | 0 | 0 | 341 | 0,6 | 982,7 |
| 7 | Petorca | 10-05-2026 01:30 | 6 | 80,9 | 0 | 0 | 38 | 0,6 | 982,6 |
| 6 | Petorca | 10-05-2026 01:15 | 6 | 80,9 | 0 | 0 | 25 | 0,6 | 982,8 |
| 5 | Petorca | 10-05-2026 01:00 | 5,7 | 84,7 | 0 | 0,5 | 15 | 0,6 | 983,1 |
| 4 | Petorca | 10-05-2026 00:45 | 5,2 | 85,1 | 0 | 0 | 20 | 0,6 | 983,3 |
| 3 | Petorca | 10-05-2026 00:30 | 6,2 | 86,1 | 0 | 0 | 46 | 0,6 | 983,3 |
| 2 | Petorca | 10-05-2026 00:15 | 5,7 | 85,8 | 0 | 0 | 350 | 0,6 | 983,3 |
| 1 | Petorca | 10-05-2026 00:00 | 6,1 | 83,1 | 0 | 0 | 326 | 0,6 | 983,6 |